TimeCST,TemperatureF,Dew PointF,Humidity,Sea Level PressureIn,VisibilityMPH,Wind Direction,Wind SpeedMPH,Gust SpeedMPH,PrecipitationIn,Events,Conditions,WindDirDegrees,DateUTC
12:52 AM,51.1,44.1,77,30.09,10.0,East,4.6,-,N/A,,Clear,80,2013-02-14 06:52:00
1:52 AM,51.1,45.0,80,30.09,10.0,East,3.5,-,N/A,,Clear,80,2013-02-14 07:52:00
2:52 AM,50.0,44.1,80,30.06,10.0,NE,5.8,-,N/A,,Clear,40,2013-02-14 08:52:00
3:52 AM,48.9,44.1,83,30.06,10.0,NNE,5.8,-,N/A,,Clear,30,2013-02-14 09:52:00
4:52 AM,46.0,42.1,86,30.06,10.0,North,5.8,-,N/A,,Clear,360,2013-02-14 10:52:00
5:52 AM,44.1,39.9,85,30.07,10.0,NNW,5.8,-,N/A,,Clear,330,2013-02-14 11:52:00
6:52 AM,42.1,37.9,85,30.09,10.0,NW,5.8,-,N/A,,Clear,310,2013-02-14 12:52:00
7:52 AM,45.0,41.0,86,30.12,10.0,NW,4.6,-,N/A,,Clear,310,2013-02-14 13:52:00
8:52 AM,54.0,46.0,75,30.13,10.0,NW,3.5,-,N/A,,Clear,310,2013-02-14 14:52:00
9:52 AM,62.1,46.9,58,30.15,10.0,Variable,3.5,-,N/A,,Clear,0,2013-02-14 15:52:00
10:52 AM,66.9,45.0,45,30.14,10.0,ENE,3.5,-,N/A,,Clear,60,2013-02-14 16:52:00
11:52 AM,71.1,39.0,31,30.13,10.0,NNE,10.4,-,N/A,,Clear,20,2013-02-14 17:52:00
12:52 PM,70.0,39.0,32,30.09,10.0,Calm,Calm,-,N/A,,Clear,0,2013-02-14 18:52:00
1:52 PM,73.0,37.0,27,30.05,10.0,NE,6.9,-,N/A,,Clear,50,2013-02-14 19:52:00
2:52 PM,73.0,39.9,30,30.02,10.0,East,12.7,-,N/A,,Clear,100,2013-02-14 20:52:00
3:52 PM,72.0,39.0,30,30.03,10.0,East,13.8,19.6,N/A,,Clear,80,2013-02-14 21:52:00
4:52 PM,69.1,37.0,31,30.02,10.0,East,12.7,-,N/A,,Clear,90,2013-02-14 22:52:00
5:52 PM,64.9,43.0,45,30.03,10.0,East,13.8,-,N/A,,Clear,90,2013-02-14 23:52:00
6:52 PM,61.0,45.0,56,30.04,10.0,East,10.4,-,N/A,,Clear,90,2013-02-15 00:52:00
7:52 PM,55.0,43.0,64,30.04,10.0,East,6.9,-,N/A,,Clear,100,2013-02-15 01:52:00
8:52 PM,54.0,44.1,69,30.06,10.0,ESE,8.1,-,N/A,,Clear,110,2013-02-15 02:52:00
9:52 PM,51.1,43.0,74,30.06,10.0,SE,4.6,-,N/A,,Clear,130,2013-02-15 03:52:00
10:52 PM,51.1,43.0,74,30.06,10.0,Calm,Calm,-,N/A,,Clear,0,2013-02-15 04:52:00
11:52 PM,48.0,43.0,83,30.06,10.0,South,4.6,-,N/A,,Clear,180,2013-02-15 05:52:00